When you browse on this site, cookies collect data to enhance your experience and personalize the content and advertising you see.
Visit our Privacy Policy to learn more. By continuing to use the site, you agree to this use of cookies and data.
  • En España
  • Lista de países
  • Para 7 días
  • Temperatura del agua
  • Mapa Satelital
  • El tiempo en el mapa
  • Informadores
  • user-avatar
    Iniciar sesión

    Tiempo cada hora Huntsville

    Hoy, 19 Junio, Miércoles

    Tiempo Temperatura Precipitaciones Viento Presión Humedad
    00:00 +23°C° 0 mm 2 mps 741 mmHg 97%
    01:00 +23°C° 0 mm 2 mps 740 mmHg 97%
    02:00 +23°C° 0 mm 2 mps 740 mmHg 97%
    03:00 +22°C° 0 mm 1 mps 740 mmHg 97%
    04:00 +23°C° 0 mm 1 mps 740 mmHg 96%
    05:00 +23°C° 0 mm 1 mps 740 mmHg 95%
    06:00 +23°C° 0 mm 1 mps 740 mmHg 94%
    07:00 +25°C° 0.2 mm 2 mps 740 mmHg 87%
    08:00 +27°C° 0.2 mm 2 mps 740 mmHg 81%
    09:00 +29°C° 0.2 mm 3 mps 740 mmHg 74%
    10:00 +29°C° 0.9 mm 3 mps 740 mmHg 74%
    11:00 +29°C° 0.9 mm 3 mps 740 mmHg 73%
    12:00 +30°C° 0.9 mm 3 mps 739 mmHg 73%
    13:00 +30°C° 0.4 mm 3 mps 739 mmHg 70%
    14:00 +31°C° 0.4 mm 3 mps 738 mmHg 68%
    15:00 +31°C° 0.4 mm 3 mps 738 mmHg 65%
    16:00 +31°C° 0.4 mm 3 mps 738 mmHg 70%
    17:00 +30°C° 0.4 mm 2 mps 738 mmHg 76%
    18:00 +29°C° 0.4 mm 2 mps 738 mmHg 81%
    19:00 +28°C° 0.2 mm 2 mps 738 mmHg 83%
    20:00 +27°C° 0.2 mm 2 mps 738 mmHg 85%
    21:00 +25°C° 0.2 mm 2 mps 738 mmHg 87%
    22:00 +25°C° 0.6 mm 2 mps 738 mmHg 89%
    23:00 +25°C° 0.6 mm 2 mps 738 mmHg 90%

    Mañana, 20 Junio, Jueves

    Tiempo Temperatura Precipitaciones Viento Presión Humedad
    00:00 +24°C° 0.6 mm 2 mps 738 mmHg 92%
    01:00 +23°C° 6.6 mm 2 mps 738 mmHg 94%
    02:00 +23°C° 6.6 mm 2 mps 737 mmHg 95%
    03:00 +21°C° 6.6 mm 2 mps 737 mmHg 97%
    04:00 +21°C° 6.1 mm 2 mps 738 mmHg 96%
    05:00 +21°C° 6.1 mm 3 mps 738 mmHg 96%
    06:00 +22°C° 6.1 mm 3 mps 739 mmHg 95%
    07:00 +23°C° 0.5 mm 4 mps 739 mmHg 92%
    08:00 +25°C° 0.5 mm 5 mps 739 mmHg 88%
    09:00 +27°C° 0.5 mm 6 mps 739 mmHg 85%
    10:00 +28°C° 2.6 mm 6 mps 739 mmHg 83%
    11:00 +29°C° 2.6 mm 6 mps 739 mmHg 82%
    12:00 +30°C° 2.6 mm 6 mps 739 mmHg 80%
    13:00 +30°C° 1.2 mm 6 mps 739 mmHg 79%
    14:00 +30°C° 1.2 mm 5 mps 739 mmHg 78%
    15:00 +30°C° 1.2 mm 5 mps 739 mmHg 78%
    16:00 +30°C° 0.1 mm 4 mps 739 mmHg 78%
    17:00 +29°C° 0.1 mm 3 mps 739 mmHg 79%
    18:00 +29°C° 0.1 mm 2 mps 740 mmHg 80%
    19:00 +28°C° 0 mm 2 mps 740 mmHg 82%
    20:00 +26°C° 0 mm 1 mps 741 mmHg 85%
    21:00 +25°C° 0 mm 1 mps 741 mmHg 88%
    22:00 +24°C° 0 mm 1 mps 741 mmHg 88%
    23:00 +22°C° 0 mm 0 mps 741 mmHg 88%

    Pasado mañana, 21 Junio, Viernes

    Tiempo Temperatura Precipitaciones Viento Presión Humedad
    00:00 +21°C° 0 mm 0 mps 741 mmHg 88%
    01:00 +21°C° 0 mm 0 mps 742 mmHg 89%
    02:00 +21°C° 0 mm 0 mps 742 mmHg 89%
    03:00 +21°C° 0 mm 0 mps 742 mmHg 89%
    04:00 +21°C° 0 mm 0 mps 742 mmHg 88%
    05:00 +24°C° 0 mm 1 mps 743 mmHg 88%
    06:00 +25°C° 0 mm 1 mps 743 mmHg 87%
    07:00 +26°C° 0 mm 1 mps 743 mmHg 84%
    08:00 +28°C° 0 mm 2 mps 744 mmHg 81%
    09:00 +29°C° 0 mm 2 mps 744 mmHg 78%
    10:00 +31°C° 0.1 mm 2 mps 744 mmHg 74%
    11:00 +32°C° 0.1 mm 2 mps 744 mmHg 69%
    12:00 +35°C° 0.1 mm 3 mps 744 mmHg 65%
    13:00 +35°C° 0.8 mm 3 mps 743 mmHg 67%
    14:00 +34°C° 0.8 mm 3 mps 743 mmHg 70%
    15:00 +34°C° 0.8 mm 3 mps 743 mmHg 73%
    16:00 +34°C° 0.2 mm 2 mps 743 mmHg 75%
    17:00 +32°C° 0.2 mm 2 mps 743 mmHg 77%
    18:00 +32°C° 0.2 mm 2 mps 743 mmHg 80%
    19:00 +30°C° 0 mm 2 mps 743 mmHg 80%
    20:00 +29°C° 0 mm 1 mps 743 mmHg 80%
    21:00 +28°C° 0 mm 1 mps 743 mmHg 80%
    22:00 +27°C° 0 mm 1 mps 744 mmHg 80%
    23:00 +27°C° 0 mm 2 mps 744 mmHg 81%

    22 Junio, Sábado

    Tiempo Temperatura Precipitaciones Viento Presión Humedad
    00:00 +26°C° 0 mm 2 mps 744 mmHg 81%
    01:00 +26°C° 0.4 mm 2 mps 744 mmHg 84%
    02:00 +25°C° 0.4 mm 2 mps 744 mmHg 87%
    03:00 +25°C° 0.4 mm 1 mps 744 mmHg 89%
    04:00 +26°C° 0.7 mm 1 mps 745 mmHg 91%
    05:00 +26°C° 0.7 mm 1 mps 745 mmHg 90%
    06:00 +24°C° 0.7 mm 0 mps 746 mmHg 89%
    07:00 +28°C° 0.4 mm 1 mps 746 mmHg 85%
    08:00 +29°C° 0.4 mm 1 mps 746 mmHg 80%
    09:00 +31°C° 0.4 mm 2 mps 746 mmHg 76%
    10:00 +32°C° 0.2 mm 2 mps 746 mmHg 71%
    11:00 +34°C° 0.2 mm 3 mps 746 mmHg 66%
    12:00 +35°C° 0.2 mm 3 mps 746 mmHg 61%
    13:00 +35°C° 1.2 mm 3 mps 746 mmHg 61%
    14:00 +35°C° 1.2 mm 2 mps 745 mmHg 61%
    15:00 +35°C° 1.2 mm 2 mps 745 mmHg 62%
    16:00 +34°C° 0.1 mm 2 mps 745 mmHg 65%
    17:00 +32°C° 0.1 mm 2 mps 744 mmHg 68%
    18:00 +32°C° 0.1 mm 1 mps 744 mmHg 71%
    19:00 +30°C° 0.1 mm 1 mps 744 mmHg 74%
    20:00 +29°C° 0.1 mm 1 mps 745 mmHg 76%
    21:00 +27°C° 0.1 mm 1 mps 745 mmHg 79%
    22:00 +27°C° 0 mm 1 mps 745 mmHg 81%
    23:00 +26°C° 0 mm 1 mps 744 mmHg 83%

    23 Junio, Domingo

    Tiempo Temperatura Precipitaciones Viento Presión Humedad
    00:00 +26°C° 0 mm 1 mps 744 mmHg 85%
    01:00 +25°C° 0 mm 1 mps 744 mmHg 86%
    02:00 +25°C° 0 mm 1 mps 744 mmHg 86%
    03:00 +25°C° 0 mm 1 mps 744 mmHg 87%
    04:00 +25°C° 0 mm 1 mps 745 mmHg 87%
    05:00 +25°C° 0 mm 1 mps 745 mmHg 86%
    06:00 +26°C° 0 mm 1 mps 745 mmHg 86%
    07:00 +27°C° 0 mm 1 mps 745 mmHg 80%
    08:00 +29°C° 0 mm 2 mps 745 mmHg 74%
    09:00 +31°C° 0 mm 2 mps 745 mmHg 69%
    10:00 +32°C° 0.2 mm 2 mps 745 mmHg 65%
    11:00 +34°C° 0.2 mm 3 mps 745 mmHg 62%
    12:00 +35°C° 0.2 mm 3 mps 745 mmHg 59%
    13:00 +35°C° 0.1 mm 3 mps 744 mmHg 57%
    14:00 +36°C° 0.1 mm 3 mps 744 mmHg 54%
    15:00 +36°C° 0.1 mm 2 mps 744 mmHg 52%
    16:00 +35°C° 0 mm 2 mps 743 mmHg 57%
    17:00 +34°C° 0 mm 2 mps 743 mmHg 61%
    18:00 +32°C° 0 mm 1 mps 743 mmHg 65%
    19:00 +30°C° 0 mm 1 mps 743 mmHg 65%
    20:00 +29°C° 0 mm 1 mps 743 mmHg 65%
    21:00 +27°C° 0 mm 1 mps 743 mmHg 65%
    22:00 +26°C° 0 mm 1 mps 743 mmHg 65%
    23:00 +26°C° 0 mm 1 mps 742 mmHg 65%

    24 Junio, Lunes

    Tiempo Temperatura Precipitaciones Viento Presión Humedad
    00:00 +25°C° 0 mm 2 mps 742 mmHg 65%
    01:00 +25°C° 0 mm 2 mps 742 mmHg 66%
    02:00 +25°C° 0 mm 2 mps 742 mmHg 67%
    03:00 +25°C° 0 mm 2 mps 742 mmHg 68%
    04:00 +25°C° 0 mm 2 mps 742 mmHg 73%
    05:00 +25°C° 0 mm 2 mps 742 mmHg 77%
    06:00 +25°C° 0 mm 2 mps 742 mmHg 81%
    07:00 +27°C° 0 mm 3 mps 742 mmHg 77%
    08:00 +28°C° 0 mm 4 mps 743 mmHg 74%
    09:00 +30°C° 0 mm 4 mps 743 mmHg 70%
    10:00 +32°C° 0 mm 4 mps 743 mmHg 65%
    11:00 +33°C° 0 mm 5 mps 743 mmHg 60%
    12:00 +34°C° 0 mm 5 mps 743 mmHg 55%
    13:00 +33°C° 0.1 mm 4 mps 742 mmHg 59%
    14:00 +31°C° 0.1 mm 3 mps 742 mmHg 63%
    15:00 +31°C° 0.1 mm 3 mps 741 mmHg 66%
    16:00 +30°C° 0.3 mm 3 mps 741 mmHg 69%
    17:00 +30°C° 0.3 mm 3 mps 741 mmHg 72%
    18:00 +30°C° 0.3 mm 4 mps 741 mmHg 75%
    19:00 +28°C° 1.5 mm 3 mps 741 mmHg 79%
    20:00 +27°C° 1.5 mm 2 mps 742 mmHg 83%
    21:00 +25°C° 1.5 mm 1 mps 742 mmHg 88%
    22:00 +25°C° 0.5 mm 1 mps 742 mmHg 88%
    23:00 +25°C° 0.5 mm 1 mps 742 mmHg 89%
    Mostrar más